Regional Weather Roundup
Issued by NWS Wakefield, VA

Home | Current Version | Previous Version | Text Only | Print | Product List | Glossary Off
Versions: 1 2 3 4 5 6 7 8 9 10 11 12 13 14 15 16 17 18 19 20 21 22 23 24 25 26 27

000
ASUS41 KAKQ 250315
RWRAKQ

REGIONAL WEATHER ROUNDUP
NATIONAL WEATHER SERVICE WAKEFIELD VA
1100 PM EDT TUE APR 24 2018

Note: "fair" indicates few or no clouds below 12,000 feet with no
significant weather and/or obstructions to visibility. * = Denotes
station may not report precipitation (e.g., rain,snow,etc.),
thunder or fog.

VAZ042-051-052>054-056-250400-
NORTHERN VIRGINIA

CITY           SKY/WX    TMP DP  RH WIND       PRES   REMARKS
WASH NATIONAL  LGT RAIN  55  52  89 NE12      29.98F
DULLES         LGT RAIN  53  53 100 NE8       29.97F FOG
FORT BELVOIR   NOT AVBL
QUANTICO       LGT RAIN  55  55 100 NE10      29.95F FOG
FREDERICKSBRG* DRIZZLE   55  55 100 NE3       29.93F
STAFFORD*      DRIZZLE   55  55 100 NE6       29.98F
WARRENTON      DRIZZLE   55  51  88 NE7       29.95F
CULPEPER*      DRIZZLE   54  53  95 NE6       29.96F
MANASSAS*      LGT RAIN  53  52  96 N6        29.97F FOG
LEESBURG*      RAIN      50  50 100 NE9       29.99F
WINCHESTER     DRIZZLE   50  50 100 NE5       30.00F
FRONT ROYAL*   CLOUDY    52  52 100 CALM      29.97F
LURAY*         RAIN      52  52 100 N7        29.95F
$$

VAZ048-049-060>072-079>083-250400-
CENTRAL AND SOUTH CENTRAL VIRGINIA

CITY           SKY/WX    TMP DP  RH WIND       PRES   REMARKS
RICHMOND       LGT RAIN  58  58 100 E8        29.89S FOG
CHESTERFIELD*  HVY RAIN  59  57  94 E5        29.89F FOG
PETERSBURG*    LGT RAIN  60  58  94 E6        29.89F
HANOVER        LGT RAIN  58  58 100 VRB5      29.91F FOG
TAPPAHANNOCK*  DRIZZLE   59  58  99 E6        29.92F
QUINTON*       CLOUDY    57  57 100 E10       29.90S FOG
CHARLOTTSVILLE LGT RAIN  55  53  93 NE12      29.92F FOG
GORDONSVILLE*  CLOUDY    54  54 100 N6        29.93F FOG
ORANGE*        DRIZZLE   52  52 100 CALM      29.93F
LOUISA*        LGT RAIN  54  53  98 N7        29.96S FOG
BUMPASS*       NOT AVBL
FARMVILLE*     HVY RAIN N/A N/A N/A N6        29.87F
CREWE*         CLOUDY    57  57 100 CALM      29.87F
FORT PICKETT*  CLOUDY   N/A N/A N/A SE5       29.87F
CHASE CITY*    CLOUDY    59  59 100 NE3       29.85F
CLARKSVILLE*   CLOUDY    59  59 100 E5        29.84F
SOUTH HILL*    CLOUDY    60  60 100 CALM      29.91F
LAWRENCEVILLE* CLOUDY    60  59  97 CALM      29.86F
EMPORIA*       CLOUDY    61  61 100 E6        29.88F
$$

VAZ088>098-250400-
SOUTHEAST VIRGINIA

CITY           SKY/WX    TMP DP  RH WIND       PRES   REMARKS
NORFOLK        CLOUDY    62  60  93 SE15G21   29.90F
VIRGINIA BEACH CLOUDY    58  58 100 SE9       29.90F FOG
NORFOLK NAVAL  CLOUDY    62  60  93 SE10G18   29.91F
WEST POINT*    CLOUDY    59  57  94 SE10      29.92F
SALUDA*        CLOUDY    59  59 100 SE16G22   29.92F
NEWPORT NEWS   CLOUDY    60  58  92 SE7       29.90F
LANGLEY AFB    NOT AVBL
FORT EUSTIS    NOT AVBL
WILLIAMSBURG*  CLOUDY    61  61 100 CALM      29.91F
HR EXEC AP*    CLOUDY    62  61  96 SE8       29.90F
FRANKLIN*      DRIZZLE   63  62  98 SE7       29.88F
US460-WAKEFLD  LGT RAIN  62  62 100 E3        29.88F FOG
$$

VAZ020-022-025-037-045-250400-
WEST CENTRAL AND SOUTHWEST VIRGINIA

CITY           SKY/WX    TMP DP  RH WIND       PRES   REMARKS
STAUNTON*      DRIZZLE   51  50  97 N7        29.96F
WAYNESBORO*    CLOUDY    51  51  99 N7        29.94F
HOT SPRINGS VA RAIN      38  38 100 E13G22    29.92F VSB<1/4
LYNCHBURG      LGT RAIN  54  52  93 NE14      29.87F
DANVILLE       CLOUDY    58  58 100 NE10      29.82F
SOUTH BOSTON*  CLOUDY    58  57  96 NE5       29.84F
MARTINSVILLE   LGT RAIN  55  55  97 N7        29.87F
ROANOKE        LGT RAIN  55  52  89 NE10      29.89F
BLACKSBURG     CLOUDY    53  52  97 NE8       29.90F
DUBLIN*        CLOUDY    54  53  96 NE9       29.88F
MARION*        DRIZZLE   54  54  99 E8        29.89S
HILLSVILLE*    LGT RAIN  52  51  96 NE6       29.85F
RICHLANDS*     RAIN      52  30  41 NE3       29.87F
WISE*          FOG       54  54 100 CALM      29.89S VSB 1/4
ABINGDON*      RAIN      56  56 100 CALM      29.86S
$$

MDZ021>025-VAZ099-100-250400-
SOUTHERN MARYLAND AND THE DELMARVA PENINSULA

CITY           SKY/WX    TMP DP  RH WIND       PRES   REMARKS
PATUXENT RIVER LGT RAIN  58  56  93 E15       29.93F FOG
BAY BRIDGE APT LGT RAIN  54  54 100 E10       29.99F FOG
LEONARDTOWN    CLOUDY    55  54  94 E9        29.96F
DOVER          NOT AVBL
GEORGETOWN     LGT RAIN  56  54  93 E15G21    30.03F FOG
EASTON         RAIN      56  54  93 SE9G22    30.02F
CAMBRIDGE      CLOUDY    57  55  94 E10G18    29.97F FOG
SALISBURY      LGT RAIN  56  56 100 SE17G24   29.99F FOG
TANGIER        NOT AVBL
OCEAN CITY     CLOUDY    52  52 100 SE16G25   30.01F
WALLOPS ISLAND CLOUDY    57  56  96 SE18G28   29.98F
ACCOMACK*      CLOUDY    57  56  97 SE14      29.95F FOG
$$

NCZ012>017-030>032-250400-
NORTH CENTRAL AND EASTERN NORTH CAROLINA

CITY           SKY/WX    TMP DP  RH WIND       PRES   REMARKS
ROANOKE RAPIDS CLOUDY    63  63 100 SE3       29.85F
RALEIGH        CLOUDY    63  63 100 SE7       29.83F
ELIZABETH CITY CLOUDY    65  64  97 SE12      29.89F
AHOSKIE*       CLOUDY    63  63 100 SE7       29.87F
EDENTON*       NOT AVBL
CURRITUCK*     NOT AVBL
KILL DEVIL HLS CLOUDY    59  58  98 MISG      29.89S FOG
MANTEO         CLOUDY    61  59  93 SE16G26   29.90F
CAPE HATTERAS  MOCLDY    67  67 100 SE8       29.87F FOG
TARBORO*       NOT AVBL
GOLDSBORO      NOT AVBL
WASHINGTON     MOCLDY    65  63  91 CALM      29.84F
GREENVILLE     CLOUDY    64  64 100 S5        29.86F
NEW BERN       CLOUDY    65  63  93 SE6       29.84F
WILMINGTON     FAIR      63  59  87 S9        29.83F
$$

VAZ048-250400-
ELSEWHERE

CITY           SKY/WX    TMP DP  RH WIND       PRES   REMARKS
HARRISBURG PA  LGT RAIN  53  50  89 E9        30.08F FOG
BALTIMORE      LGT RAIN  53  53 100 E17       30.00F FOG
ANNAPOLIS      LGT RAIN  56 N/A N/A E12       29.99F
ANDREWS AFB    NOT AVBL
PHILADELPHIA   LGT RAIN  53  51  93 E8        30.11F FOG
HENDERSON NC   RAIN      59  58  98 E3        29.84F
GREENSBORO     LGT RAIN  59  59 100 NE8       29.79F
ROCKY MOUNT    CLOUDY    64  62  93 VRB6      29.82F
$$

VAZ100-250400-
MARINE

STATION/POSITION TIME  TEMP    WIND        PRES    WAVE   SWELL
                       AIR SEA DIR/SP/G            HT/PER HT/PER
                 (UTC) (F)     (DEG/KT/KT) (MB)    (FT/S) (FT/S)
BRANDYWINE LGT   0242   54     120/ 23/ 26 1017.7F
CAPE MAY NJ      0248   54 51  100/ 17/ 21 1017.1F
LEWES DE         0248   53 51  120/ 14/ 17 1017.0F
15NM E FENWICK I 0250   50 47   90/ 17/ 19 1017.0F   6/ 8   5/ 8
OCEAN-CITY-INLET 0248   53 51  130/ 13/ 22 1016.7F
WACHAPREAGUE VA  0248   55 56  110/ 12/ 15 1014.5F
THOMAS POINT MD  0300   54 53   80/ 16/ 18 1015.9F
GOOSES REEF MD   0300   55     110/ 14/ 19 1015.2
COVE POINT MD    0248   56     130/ 19/ 24 1014.4F
SOLOMONS ISLAND  0248   55 53  100/ 16/ 18 1013.6F
BISHOPS HEAD MD  0248   57 56  100/ 17/ 22 1014.3F
PINEY POINT MD   0248          150/ 19/ 22   N/A
POTOMAC MD       0300   55 53  130/ 16/ 19 1014.7    3/ 3
CAMBRIDGE MD     0248   56 56              1015.8F
LEWISETTA VA     0248   58 54  140/ 15/ 19 1013.3F
RAPPAHANNOCK LGT 0248          120/ 21/ 29 1014.1F
YORK RVR RNG VA  0248   56     140/ 18/ 20 1013.4F
YORKTOWN VA      0248   57 56  110/  7/ 10 1012.4F
DOMINION TERM VA 0248   61     140/  8/  9 1012.7F
KIPTOPEKE VA     0248      55  160/ 14/ 17   N/A
CAPE HENRY VA    0248   56     140/ 12/ 17   N/A
WILLOUBY STN VA  0248   62     150/ 17/ 19 1012.4F
S CRANEY ISL VA  0248   62     140/ 12/ 16 1012.2F
CAPE HENRY BUOY  0300      51                N/A     7/11   3/11
64NM E OF VA BCH 0250   57 49  140/ 16/ 19 1013.8F  15/10  13/10
DUCK PIER NC     0248   56 51  140/ 12/ 12 1011.8F
44100 DUCK FRF   0245      53                N/A    12/11   7/11
44056 DUCK FRF   0300      51                N/A     8/11   5/11
OREGON INLET NC  0242   59 54  110/ 13/ 18 1011.8F
HATTERAS NC      0248   67 62  110/  6/  8 1011.1F
DIAMOND SHLS NC  0300   71 70  170/ 19/ 25 1011.6
CAPE LOOKOUT NC  0300          140/ 16/ 18 1010.3F
$$




USA.gov is the U.S. government's official web portal to all federal, state and local government web resources and services.